Location: Ballingbuur
(53.0000°N, 5.7667°E)
Time: 19:02:18
(UTC+00:00)

ASTRO F (AKARI) - Pass Details

Date: 29 November 2020
Orbit: 398 x 519 km, 98.2° (Epoch: 24 January)

Event Time Altitude Azimuth Distance (km) Brightness Sun altitude
Rises 05:37:12 0° 14° (NNE) 2,326 8.0 -15.3°
Reaches altitude 10° 05:39:11 10° 13° (NNE) 1,462 7.0 -15.0°
Maximum altitude 05:42:16 77° 288° (WNW) 420 4.0 -14.6°
Drops below altitude 10° 05:45:24 10° 201° (SSW) 1,470 7.0 -14.2°
Sets 05:47:23 0° 200° (SSW) 2,339 8.0 -13.9°
